Погода Березово

Погода Березово : погода сейчас, прогноз погоды и архив. Всё, что Вы хотите узнать о погоде Березово!

Поиск расширенной информации на нашем сайте:

Другие новости

Новости СМИ2

Главная страница сайта

Новости сайта

03.07.2017

Напоминаем, что на нашем специализированном сайте Метеоцентр.Азия вы можете получить высокодетализированные автоматические прогнозы погоды по пунктам России, СНГ и мира в авиационном формате (включающие направление и скорость ветра, видимость, явления погоды, количество и форму облачности, нижнюю и верхнюю границу облачности).


Погода Березово - сегодня

Время (UTC), дата Ветер
(°,м/с) 
Видим.   Явления Облачность Т
(°С)
Тd
(°С)
f(%) Тe
(°С)
Pmin
(гПа)
dP
(гПа)
Po
(мм)
O2
(г/м3)
Тmin Tmax R s Состояние
почвы
21 16.02.18 200 (Ю) 20000 м    10/0 средняя, верхняя 
[Ac trans|Ci fib]
-14.3 -15.6 90 -16  1026  -0.7  766  327           
00 17.02.18 240 (ЮЗ) 20000 м    3/0 верхняя 
[Ci fib]
-14.3 -15.6 90 -18  1025.3  -0.7  766  327           
03 17.02.18 240 (ЮЗ) 20000 м    1/0 средняя 
[Ac trans]
-13.5 -15.5 85 -18  1024.9  -0.4  765  326  -15.1      63  равномерный
сухой снег
100% 
06 17.02.18 220 (ЮЗ) 20000 м    ясно 
-12.3 -14.3 85 -16  1024.4  -0.4  765  324           
09 17.02.18 240 (ЮЗ) 20000 м    4/1 1200 м верхняя 
[Sc|Ci fib]
-8.7 -12 77 -13  1023.8  -0.6  765  319           
12 17.02.18 210 (ЮЗ) 20000 м    10/0 верхняя 
[Ci fib]
-10.3 -13.1 80 -13  1023.1  -0.7  764  321           
18 17.02.18 220 (ЮЗ) 20000 м    3/0 верхняя 
[Ci fib]
-15.5 -16.8 90 -18  1021.5  -0.9  763  327           
21 17.02.18 240 (ЮЗ) 20000 м    3/0 верхняя 
[Ci fib]
-15.3 -16.6 90 -18  1021  -0.5  762  327           
00 18.02.18 240 (ЮЗ) 20000 м    ясно 
-15.7 -17.6 85 -18  1020.7  -0.3  762  327           
03 18.02.18 220 (ЮЗ) 20000 м  [диам. изморози 2 мм]  3/0 средняя 
[Ac trans]
-15.1 -17 85 -17  1020.2  -0.5  762  326  -15.7         
06 18.02.18 220 (ЮЗ) 20000 м  [диам. изморози 1 мм]  3/0 средняя, верхняя 
[Ac trans|Ci fib]
-12.5 -14.5 85 -17  1019.4  -0.7  761  323           
09 18.02.18 260 (З) 20000 м  [диам. изморози 1 мм]  4/0 верхняя 
[Ci fib]
-8.3 -12 75 -13  1019.6  0.2  761  318           
12 18.02.18 250 (З) 20000 м  [диам. изморози 0 мм]  10/0 средняя, верхняя 
[Ac trans|Ci fib]
-8.7 -10.6 86 -13  1019.7  0.1  762  318           
18 18.02.18 230 (ЮЗ) 20000 м    4/0 верхняя 
[Ci fib]
-11.5 -14.3 80 -16  1018.5  -1.2  761  321           
21 18.02.18 240 (ЮЗ) 20000 м    4/0 верхняя 
[Ci fib]
-13.4 -15.4 85 -18  1019.9  1.3  762  324           
00 19.02.18 260 (З) 20000 м    8/0 верхняя 
[Ci fib]
-12.9 -14.9 85 -17  1020.8  0.9  762  324           
03 19.02.18 250 (З) 20000 м    4/0 средняя, верхняя 
[Ac trans|Ci fib]
-14.9 -16.9 85 -19  1021.7  0.9  763  327  -14.9      63  равномерный
сухой снег
100% 
09 19.02.18 нст () 20000 м    3/0 верхняя 
[Ci fib]
-8.9 -14.9 62 -9  1024.4  1.6  765  320           
12 19.02.18 нст () 20000 м    8/0 верхняя 
[Ci fib]
-14.4 -17.9 75 -14  1025.3  0.8  766  327           
18 19.02.18 020 (С) 20000 м    ясно 
-23.8 -25.6 85 -27  1025.7  0.1  766  340           
21 19.02.18 020 (С) 20000 м    4/0 верхняя 
[Ci fib]
-20.9 -22.8 85 -24  1025.7  0.1  766  336           
00 20.02.18 020 (С) 20000 м    10/3 210 м верхняя 
[St|Cs]
-21.5 -23.3 85 -24  1025.8  0.1  766  337           
03 20.02.18 020 (С) 10 км  слаб. снег  10/3 210 м верхняя 
[Frnb|Cs]
-22.5 -24.3 85 -27  1025.8  766  338  -24.2    0.0  63  равномерный
сухой снег
100% 
09 20.02.18 020 (С) 20000 м    10/0 верхняя 
[Cs]
-21 -23.5 80 -27  1025.7  0.1  766  336           
12 20.02.18 020 (С) 20000 м    10/0 верхняя 
[Cs]
-20.6 -23.1 80 -27  1025.7  766  336           
Время (UTC), дата Ветер
(°,м/с) 
Видим.   Явления Облачность Т
(°С)
Тd
(°С)
f(%) Тe
(°С)
Pmin
(гПа)
dP
(гПа)
Po
(мм)
O2
(г/м3)
Тmin Tmax R s Состояние
почвы

Для получения пояснительной информации подведите курсор к названию столбца.

ПОГОДА Березово - архив

Всё, что Вы хотите узнать о погоде Березово - удобно и подробно!

Выберите нужную дату (начиная с 1 января 2015* года) и нажмите кнопку "Найти".
Будут отображены архивные сводки погоды по пункту Березово, начиная с указанной даты.


Отображать данные в формате CSV (для использования в таблицах Excel)


Внимание! Наш архив погоды предназначен исключительно для личного некоммерческого использования в познавательных целях. Если Вам необходимы официальные справки о состоянии погоды (для производственных, юридических, коммерческих и т.п. целей), обращайтесь в органы Росгидромета.

*Примечание: данная дата относится к архиву по метеостанциям СССР (Россия, СНГ, Балтия).
Архив по метеостанциям Зарубежной Европы и Азии (кроме Китая) хранится 10 дней, по другим регионам земного шара (Китай, Африка, Америка, Австралия, Океания) - 1 день.

Березово - район местоположения метеостанции


Название, широта, долгота, высота метеостанции:
Березово 63.9°ш. 65.1°д. 32 м над ур. моря [Российская Федерация]

Дополнительная информация

В oтличие oт бoльшинства пoгoдных сайтoв мы публикуем пoдрoбную метеoинфoрмацию в детальнoм прoфессиoнальнoм фoрмате.

Характеристики температуры и влажнoсти вoздуха измеряются на высoте 2 м в тени вдали oт зданий и деревьев.
Скoрoсть ветра измеряется на высoте 10 м (на урoвне рoста челoвека скoрoсть ветра ниже в 1.5-2 раза). Если метеoстанция нахoдится в гoрoде или в лесу, тo скoрoсть ветра занижена на 2-4 м/с пo сравнению с oткрытым местoм. Скoрoсть ветра над акватoриями крупных рек и oзёр, а также на вершинах хoлмoв на 2-5 м/с выше, чем в oбычных услoвиях.
Атмoсфернoе давление в разных тoчках местнoсти мoжет значительнo oтличаться oт давления на метеoстанции, в зависимoсти oт услoвий рельефа (при пoдъёме на 10 м давление пoнижается примернo на 1 мм рт.ст.).